Time,TemperatureF,DewpointF,PressureIn,WindDirection,WindDirectionDegrees,WindSpeedMPH,WindSpeedGustMPH,Humidity,HourlyPrecipIn,Conditions,Clouds,dailyrainin,SolarRadiationWatts/m^2,SoftwareType,DateUTC
2013-05-31 12:42:00,82.0,72.0,29.84,South,173,7.0,9.0,70,0.00,,,-99.99,257.000000,,2013-05-31 17:42:00,
2013-05-31 12:52:00,82.0,72.0,29.84,South,173,7.0,9.0,70,0.00,,,-99.99,257.000000,,2013-05-31 17:52:00,
2013-05-31 13:02:00,82.0,72.0,29.84,South,173,7.0,9.0,70,0.00,,,-99.99,257.000000,,2013-05-31 18:02:00,
2013-05-31 13:11:00,82.0,72.0,29.84,South,173,7.0,9.0,70,0.00,,,-99.99,257.000000,,2013-05-31 18:11:00,
2013-05-31 13:42:00,85.0,71.0,29.82,South,172,7.0,10.0,64,0.00,,,-99.99,320.000000,,2013-05-31 18:42:00,
2013-05-31 13:52:00,85.0,71.0,29.82,South,172,7.0,10.0,64,0.00,,,-99.99,320.000000,,2013-05-31 18:52:00,
2013-05-31 14:02:00,85.0,71.0,29.82,South,172,7.0,10.0,64,0.00,,,-99.99,320.000000,,2013-05-31 19:02:00,
2013-05-31 14:11:00,85.0,71.0,29.82,South,172,7.0,10.0,64,0.00,,,-99.99,320.000000,,2013-05-31 19:11:00,
2013-05-31 14:42:00,87.0,71.0,29.81,South,171,10.0,10.0,60,0.00,,,-99.99,431.000000,,2013-05-31 19:42:00,
2013-05-31 14:52:00,87.0,71.0,29.81,South,171,10.0,10.0,60,0.00,,,-99.99,431.000000,,2013-05-31 19:52:00,
2013-05-31 15:02:00,87.0,71.0,29.81,South,171,10.0,10.0,60,0.00,,,-99.99,431.000000,,2013-05-31 20:02:00,
2013-05-31 15:11:00,87.0,71.0,29.81,South,171,10.0,10.0,60,0.00,,,-99.99,431.000000,,2013-05-31 20:11:00,
2013-05-31 15:42:00,88.0,70.0,29.78,South,170,9.0,14.0,56,0.00,,,-99.99,587.000000,,2013-05-31 20:42:00,
2013-05-31 15:52:00,88.0,70.0,29.78,South,170,9.0,14.0,56,0.00,,,-99.99,587.000000,,2013-05-31 20:52:00,
2013-05-31 16:01:00,88.0,70.0,29.78,South,170,9.0,14.0,56,0.00,,,-99.99,587.000000,,2013-05-31 21:01:00,
2013-05-31 16:11:00,88.0,70.0,29.78,South,170,9.0,14.0,56,0.00,,,-99.99,587.000000,,2013-05-31 21:11:00,
2013-05-31 16:32:00,89.0,69.0,29.76,South,169,10.0,10.0,53,0.00,,,-99.99,471.000000,,2013-05-31 21:32:00,
2013-05-31 16:42:00,89.0,69.0,29.76,South,169,10.0,10.0,53,0.00,,,-99.99,471.000000,,2013-05-31 21:42:00,
2013-05-31 16:54:00,89.0,69.0,29.76,South,169,10.0,10.0,53,0.00,,,-99.99,471.000000,,2013-05-31 21:54:00,
2013-05-31 17:02:00,89.0,69.0,29.76,South,169,10.0,10.0,53,0.00,,,-99.99,471.000000,,2013-05-31 22:02:00,
2013-05-31 17:12:00,89.0,69.0,29.76,South,169,10.0,10.0,53,0.00,,,-99.99,471.000000,,2013-05-31 22:12:00,
2013-05-31 17:42:00,89.0,69.0,29.75,South,169,9.0,9.0,53,0.00,,,-99.99,322.000000,,2013-05-31 22:42:00,
2013-05-31 17:53:00,89.0,69.0,29.75,South,169,9.0,9.0,53,0.00,,,-99.99,322.000000,,2013-05-31 22:53:00,
2013-05-31 18:02:00,89.0,69.0,29.75,South,169,9.0,9.0,53,0.00,,,-99.99,322.000000,,2013-05-31 23:02:00,
2013-05-31 18:12:00,89.0,69.0,29.75,South,169,9.0,9.0,53,0.00,,,-99.99,322.000000,,2013-05-31 23:12:00,
2013-05-31 18:32:00,88.0,68.0,29.72,South,169,12.0,14.0,52,0.00,,,-99.99,207.000000,,2013-05-31 23:32:00,
2013-05-31 18:42:00,88.0,68.0,29.72,South,169,12.0,14.0,52,0.00,,,-99.99,207.000000,,2013-05-31 23:42:00,
2013-05-31 18:52:00,88.0,68.0,29.72,South,169,12.0,14.0,52,0.00,,,-99.99,207.000000,,2013-05-31 23:52:00,
2013-05-31 19:01:00,88.0,68.0,29.72,South,169,12.0,14.0,52,0.00,,,-99.99,207.000000,,2013-06-01 00:01:00,
2013-05-31 19:11:00,88.0,68.0,29.72,South,169,12.0,14.0,52,0.00,,,-99.99,207.000000,,2013-06-01 00:11:00,
2013-05-31 19:32:00,87.0,68.0,29.70,South,170,15.0,17.0,53,0.00,,,-99.99,45.000000,,2013-06-01 00:32:00,
2013-05-31 19:42:00,87.0,68.0,29.70,South,170,15.0,17.0,53,0.00,,,-99.99,45.000000,,2013-06-01 00:42:00,
2013-05-31 19:52:00,87.0,68.0,29.70,South,170,15.0,17.0,53,0.00,,,-99.99,45.000000,,2013-06-01 00:52:00,
2013-05-31 20:01:00,87.0,68.0,29.70,South,170,15.0,17.0,53,0.00,,,-99.99,45.000000,,2013-06-01 01:01:00,
2013-05-31 20:11:00,87.0,68.0,29.70,South,170,15.0,17.0,53,0.00,,,-99.99,45.000000,,2013-06-01 01:11:00,
2013-05-31 20:32:00,86.0,69.0,29.70,South,173,5.0,9.0,58,0.00,,,-99.99,-39.000000,,2013-06-01 01:32:00,
2013-05-31 20:42:00,86.0,69.0,29.70,South,173,5.0,9.0,58,0.00,,,-99.99,-39.000000,,2013-06-01 01:42:00,
2013-05-31 20:52:00,86.0,69.0,29.70,South,173,5.0,9.0,58,0.00,,,-99.99,-39.000000,,2013-06-01 01:52:00,
2013-05-31 21:01:00,86.0,69.0,29.70,South,173,5.0,9.0,58,0.00,,,-99.99,-39.000000,,2013-06-01 02:01:00,
2013-05-31 21:11:00,86.0,69.0,29.70,South,173,5.0,9.0,58,0.00,,,-99.99,-39.000000,,2013-06-01 02:11:00,
2013-05-31 21:32:00,85.0,70.0,29.73,South,175,5.0,7.0,61,0.00,,,-99.99,-43.000000,,2013-06-01 02:32:00,
2013-05-31 21:42:00,85.0,70.0,29.73,South,175,5.0,7.0,61,0.00,,,-99.99,-43.000000,,2013-06-01 02:42:00,
2013-05-31 21:52:00,85.0,70.0,29.73,South,175,5.0,7.0,61,0.00,,,-99.99,-43.000000,,2013-06-01 02:52:00,
2013-05-31 22:02:00,85.0,70.0,29.73,South,175,5.0,7.0,61,0.00,,,-99.99,-43.000000,,2013-06-01 03:02:00,
2013-05-31 22:11:00,85.0,70.0,29.73,South,175,5.0,7.0,61,0.00,,,-99.99,-43.000000,,2013-06-01 03:11:00,
2013-05-31 22:33:00,84.0,70.0,29.73,South,175,7.0,9.0,64,0.00,,,-99.99,-43.000000,,2013-06-01 03:33:00,
2013-05-31 22:43:00,84.0,70.0,29.73,South,175,7.0,9.0,64,0.00,,,-99.99,-43.000000,,2013-06-01 03:43:00,
2013-05-31 22:53:00,84.0,70.0,29.73,South,175,7.0,9.0,64,0.00,,,-99.99,-43.000000,,2013-06-01 03:53:00,
2013-05-31 23:03:00,84.0,70.0,29.73,South,175,7.0,9.0,64,0.00,,,-99.99,-43.000000,,2013-06-01 04:03:00,
2013-05-31 23:12:00,84.0,70.0,29.73,South,175,7.0,9.0,64,0.00,,,-99.99,-43.000000,,2013-06-01 04:12:00,
2013-05-31 23:33:00,83.0,70.0,29.73,South,178,9.0,12.0,65,0.00,,,-99.99,-45.000000,,2013-06-01 04:33:00,
2013-05-31 23:42:00,83.0,70.0,29.73,South,178,9.0,12.0,65,0.00,,,-99.99,-45.000000,,2013-06-01 04:42:00,
2013-05-31 23:53:00,83.0,70.0,29.73,South,178,9.0,12.0,65,0.00,,,-99.99,-45.000000,,2013-06-01 04:53:00,